星链-30508 (STARLINK-30508 )

导读

STARLINK-30508是美国SpaceX公司星链(Starlink)星座的成员卫星,于2023年9月30日发射。作为低轨宽带通信卫星,它运行在近地轨道,搭载相控阵天线与激光星间链路,采用氪离子霍尔推进器,具备自主轨道维持与避碰能力。旨在为全球提供高速低延迟宽带互联网服务,尤其覆盖偏远地区,是星链大规模星座部署中的一颗量产卫星,退役后将主动离轨再入大气层销毁。

基本信息
目录编号:
57979
目录名称:
STARLINK-30508
国际标识:
2023-151R
轨道中心:
EARTH
卫星名称:
星链-30508
卫星全名:
星链-30508 (STARLINK-30508 )
卫星状态:
在轨 (已飞行994 天)
发射日期:
2023-09-30 UTC
国别 :
美国 (US)
星等 :
--
轨道信息
数据来源 国际轨道数据
星历时间: 2026-06-19T13:53:44+0800
1天前
查看轨道信息
半长轴: 6861.196km
偏心率: 0.0001303
轨道倾角: 43.002°
近地点辐角 270.456°
升交点赤经 137.265°
平近点角 89.614°
近地点: 482.164km
远地点: 483.954km
周期: 94.267分钟
每日圈数: 15.275769
详细信息
固有亮度:
5
最大亮度:
0.3
卫星平台:
Starlink v2.0 mini
覆盖范围:
全球
运营商:
太空探索技术公司
运营商所在国:
美国
制造商(研发单位):
太空探索技术公司
制造商所在国:
美国
使用方式:
暂无
卫星简介
星链(Starlink)计划是由太空探索技术公司(SpaceX)提出的一个巨型低轨卫星互联网星座项目,计划在2019年至2024年间在太空搭建由约1.2万颗卫星组成的“星链”网络,其中1584颗将部署在地球上空550千米处的近地轨道,并从2020年开始工作。该卫星仍在工作。
2D轨道图
3D轨道图
轨道高度分析图
轨道倾角分析图
轨道综合分析图
查看轨道综合分析图